User: anonymous   Login
Location: Asheville, NC
(35.6000°N, 82.5500°W)
Time: 18:46:48
(UTC-04:00)
Language:

KKS-1 - Orbit

View from above orbital plane
View from above orbital plane
View from above satellite
View from above satellite

Ground track
Ground track

The orbit data is extracted from the following two-line orbital elements,

1 33499U 09002H   18288.90032445 +.00000098 +00000-0 +22516-4 0  9990
2 33499 098.3577 114.6161 0007944 269.0452 090.9846 14.75370271522553
Epoch (UTC): 15 October 2018 21:36:28
Eccentricity: 0.0007944
inclination: 98.3577°
perigee height: 638 km
apogee height: 649 km
right ascension of ascending node: 114.6161°
argument of perigee: 269.0452°
revolutions per day: 14.75370271
mean anomaly at epoch: 90.9846°
orbit number at epoch: 52255

The dashed part of the orbit path shows where the satellite is in the earth's shadow,  

DLR